Flag for India Past Weather in New Okhla Industrial Development Authority, Uttar Pradesh, India — Yesterday and Last 2 Weeks

68 °F


Feels Like: 68 °F
Forecast: 67 / 90 °F
Wind: No wind

Location: New Delhi Palam Airport

Current Time: Oct 26, 2016 at 2:27:40 AM

Latest Report: Oct 26, 2016 at 1:30 AM

Visibility: 1 mi

Pressure: 29.83 "Hg

Humidity: 73%

Dew Point: 59 °F

Location of New Okhla Industrial Development AuthorityLocation

Past Weather in New Okhla Industrial Development Authority — Graph


New Okhla Industrial Development Authority Temperature Yesterday

Maximum temperature yesterday: 90 °F (at 12:30 PM)
Minimum temperature yesterday: 72 °F (at 2:30 AM)
Average temperature yesterday: 79 °F

High & Low Weather Summary for the Past Weeks

High95 °F (Oct 13, 2:00 PM)83% (Oct 11, 5:00 AM)29.95 "Hg (Oct 11, 5:00 AM)
Low64 °F (Oct 16, 6:00 AM)19% (Oct 17, 4:00 PM)29.68 "Hg (Oct 12, 3:30 PM)
Average81 °F45%29.81 "Hg
* Reported Oct 11 12:30 AM — Oct 26 1:00 AM, New Okhla Industrial Development Authority, Weather by CustomWeather, © 2016

Note: Actual official high and low records may vary slightly from our data, if they occured in-between our weather recording intervals... More about our weather records


New Okhla Industrial Development Authority Weather History for the Previous 24 Hours

Scroll right to see more
Time TempWeatherWind HumidityBarometerVisibility
1:00 AM
Wed, Oct 26
68 °FClear.No wind73%29.83 "Hg1 mi
12:30 AM68 °FClear.No wind73%29.83 "Hg1 mi
12:00 AM72 °FClear.No wind65%29.83 "Hg1 mi
11:30 PM
Tue, Oct 25
72 °FClear.No wind65%29.83 "Hg1 mi
11:00 PM73 °FClear.No wind65%29.86 "Hg1 mi
10:30 PM73 °FClear.No wind61%29.83 "Hg1 mi
10:00 PM75 °FClear.No wind54%29.83 "Hg1 mi
9:30 PM75 °FClear.No wind54%29.83 "Hg1 mi
9:00 PM77 °FClear.No wind51%29.83 "Hg1 mi
8:30 PM79 °FClear.No wind48%29.83 "Hg1 mi
8:00 PM81 °FClear.No wind45%29.83 "Hg2 mi
7:30 PM82 °FClear.No wind42%29.80 "Hg2 mi
7:00 PM84 °FHaze.3 mph37%29.80 "Hg2 mi
6:30 PM84 °FHaze.3 mph37%29.80 "Hg2 mi
6:00 PM86 °FHaze.6 mph35%29.77 "Hg3 mi
5:30 PM88 °FHaze.9 mph33%29.77 "Hg3 mi
4:30 PM88 °FHaze.9 mph33%29.77 "Hg3 mi
4:00 PM90 °FScattered clouds.12 mph31%29.77 "Hg3 mi
3:30 PM90 °FScattered clouds.12 mph31%29.77 "Hg3 mi
3:00 PM90 °FScattered clouds.13 mph36%29.77 "Hg3 mi
2:30 PM90 °FScattered clouds.10 mph36%29.77 "Hg3 mi
2:00 PM90 °FHaze.12 mph31%29.80 "Hg3 mi
1:30 PM90 °FHaze.12 mph31%29.83 "Hg3 mi
1:00 PM90 °FHaze.12 mph29%29.83 "Hg3 mi
12:30 PM90 °FHaze.12 mph29%29.83 "Hg3 mi
11:30 AM84 °FHaze.12 mph37%29.86 "Hg3 mi
11:00 AM84 °FHaze.12 mph37%29.86 "Hg3 mi
10:30 AM82 °FHaze.12 mph40%29.86 "Hg2 mi
10:00 AM81 °FHaze.9 mph42%29.86 "Hg2 mi
9:30 AM79 °FHaze.8 mph48%29.86 "Hg2 mi
9:00 AM77 °FHaze.8 mph47%29.86 "Hg2 mi
8:30 AM75 °FClear.8 mph50%29.83 "Hg2 mi
8:00 AM75 °FPassing clouds.7 mph50%29.83 "Hg1 mi
7:30 AM73 °FPassing clouds.7 mph53%29.83 "Hg1 mi
7:00 AM72 °FPassing clouds.7 mph57%29.83 "Hg1 mi
6:30 AM72 °FClear.3 mph53%29.83 "Hg1 mi
6:00 AM72 °FClear.3 mph53%29.80 "Hg1 mi
5:30 AM72 °FClear.3 mph53%29.80 "Hg1 mi
4:30 AM72 °FClear.3 mph53%29.80 "Hg1 mi
4:00 AM72 °FClear.No wind53%29.80 "Hg1 mi
3:30 AM72 °FClear.No wind53%29.77 "Hg1 mi
3:00 AM72 °FClear.No wind53%29.77 "Hg1 mi
2:30 AM72 °FClear.No wind57%29.77 "Hg1 mi
2:00 AM73 °FClear.No wind53%29.77 "Hg1 mi
Weather by CustomWeather, © 2016

See weather overviewHow to use our weather pages